Moose Lake, MN

11:10 AM CDT on July 27, 2016 (GMT -0500)
Moose Lake-Carlton County

Weather History for KMZH - November, 2013

Change the Weather History Date:

Thursday, November 21, 2013

  Actual Average Record
Temperature  
Mean Temperature 28 °F -  
Max Temperature 35 °F 34 °F 65 °F (1990)
Min Temperature 21 °F 17 °F -9 °F (2014)
Degree Days  
Heating Degree Days 37    
Moisture  
Dew Point 22 °F    
Average Humidity 76    
Maximum Humidity 100    
Minimum Humidity 59    
Precipitation  
Precipitation 0.00 in - - ()
Sea Level Pressure  
Sea Level Pressure 30.24 in    
Wind  
Wind Speed 7 mph (NNW)    
Max Wind Speed 16 mph    
Max Gust Speed 25 mph    
Visibility 8 miles    
Events      
Averages and records for this station are not official NWS values.
T = Trace of Precipitation, MM = Missing Value Source: NWS Daily Summary

Daily Weather History Graph

Daily Weather History Graph

Search for Another Location

Airport or City:

Trip Planner

Search our weather history database for the weather conditions in past years. The results will help you decide how hot, cold, wet, or windy it might be!

Date:

Astronomy

Nov. 21, 2013 Rise Set
Actual Time 7:21 AM CST 4:32 PM CST
Civil Twilight 6:48 AM CST 5:05 PM CST
Nautical Twilight 6:11 AM CST 5:42 PM CST
Astronomical Twilight 5:35 AM CST 6:18 PM CST
Moon 8:11 PM CST (11/21) 10:27 AM CST (11/21)
Length of Visible Light 10h 17m
Length of Day
9h 10m
Waning Gibbous, 85% of the Moon is Illuminated
Nov 21
Waning Gibbous
Nov 25
Last Quarter
Dec 2
New
Dec 9
First Quarter
Dec 17
Full

Hourly Weather History & Observations

Time (CST) Temp. Windchill Dew Point Humidity Pressure Visibility Wind Dir Wind Speed Gust Speed Precip Events Conditions
12:06 AM 35.6 °F 32.8 °F 32.0 °F 87% 30.01 in 5.0 mi South 3.5 mph - N/A   Overcast
12:28 AM 35.6 °F 31.7 °F 32.0 °F 87% 30.01 in 5.0 mi South 4.6 mph - N/A   Overcast
12:47 AM 35.6 °F 30.7 °F 32.0 °F 87% 30.02 in 5.0 mi SW 5.8 mph - N/A   Overcast
1:07 AM 33.8 °F - 32.0 °F 93% 30.02 in 5.0 mi Calm Calm - N/A   Overcast
1:27 AM 33.8 °F 30.8 °F 32.0 °F 93% 30.02 in 5.0 mi South 3.5 mph - N/A   Overcast
1:47 AM 33.8 °F 30.8 °F 32.0 °F 93% 30.02 in 5.0 mi South 3.5 mph - N/A   Overcast
2:07 AM 33.8 °F 30.8 °F 32.0 °F 93% 30.03 in 5.0 mi SSW 3.5 mph - N/A   Overcast
2:26 AM 33.8 °F - 32.0 °F 93% 30.04 in 5.0 mi Calm Calm - N/A   Overcast
2:46 AM 33.8 °F - 32.0 °F 93% 30.04 in 4.0 mi Calm Calm - N/A   Overcast
3:07 AM 33.8 °F 30.8 °F 32.0 °F 93% 30.04 in 4.0 mi South 3.5 mph - N/A   Overcast
3:27 AM 33.8 °F - 32.0 °F 93% 30.04 in 4.0 mi Calm Calm - N/A   Overcast
3:47 AM 33.8 °F - 32.0 °F 93% 30.04 in 3.0 mi Calm Calm - N/A   Overcast
4:07 AM 33.8 °F - 32.0 °F 93% 30.04 in 3.0 mi Calm Calm - N/A   Overcast
4:26 AM 33.8 °F 30.8 °F 32.0 °F 93% 30.05 in 2.5 mi SW 3.5 mph - N/A   Overcast
4:47 AM 33.8 °F 30.8 °F 32.0 °F 93% 30.05 in 2.5 mi SSW 3.5 mph - N/A   Overcast
5:07 AM 33.8 °F 30.8 °F 32.0 °F 93% 30.06 in 2.0 mi SW 3.5 mph - N/A   Overcast
5:27 AM 33.8 °F 30.8 °F 32.0 °F 93% 30.06 in 1.2 mi SW 3.5 mph - N/A   Overcast
5:47 AM 33.8 °F - 32.0 °F 93% 30.07 in 0.8 mi Calm Calm - N/A   Overcast
6:07 AM 33.8 °F 30.8 °F 33.8 °F 100% 30.08 in 0.8 mi WSW 3.5 mph - N/A   Overcast
6:27 AM 33.8 °F 27.0 °F 32.0 °F 93% 30.10 in 4.0 mi NW 8.1 mph - N/A   Overcast
6:47 AM 33.8 °F 26.4 °F 32.0 °F 93% 30.11 in 5.0 mi NW 9.2 mph - N/A   Overcast
7:07 AM 32.0 °F 22.5 °F 32.0 °F 100% 30.13 in 5.0 mi NW 12.7 mph 17.3 mph N/A   Overcast
7:27 AM 32.0 °F 24.2 °F 30.2 °F 93% 30.13 in 5.0 mi NW 9.2 mph 17.3 mph N/A   Overcast
7:47 AM 32.0 °F 23.0 °F 30.2 °F 93% 30.15 in 4.0 mi NW 11.5 mph 18.4 mph N/A   Overcast
8:07 AM 32.0 °F 24.8 °F 28.4 °F 87% 30.16 in 4.0 mi NNW 8.1 mph 18.4 mph N/A   Overcast
8:27 AM 30.2 °F 19.8 °F 28.4 °F 93% 30.17 in 4.0 mi NW 13.8 mph 19.6 mph N/A   Overcast
8:46 AM 30.2 °F 20.8 °F 28.4 °F 93% 30.18 in 10.0 mi NW 11.5 mph - N/A   Overcast
9:06 AM 30.2 °F 21.3 °F 26.6 °F 86% 30.20 in 10.0 mi NNW 10.4 mph 17.3 mph N/A   Overcast
9:27 AM 30.2 °F 20.8 °F 24.8 °F 80% 30.21 in 10.0 mi NW 11.5 mph 17.3 mph N/A   Overcast
9:47 AM 28.4 °F 17.5 °F 23.0 °F 80% 30.21 in 10.0 mi North 13.8 mph 21.9 mph N/A   Overcast
10:07 AM 28.4 °F 17.0 °F 21.2 °F 74% 30.22 in 10.0 mi North 15.0 mph 24.2 mph N/A   Overcast
10:27 AM 28.4 °F 18.0 °F 21.2 °F 74% 30.24 in 10.0 mi North 12.7 mph 18.4 mph N/A   Overcast
10:47 AM 28.4 °F 17.5 °F 21.2 °F 74% 30.24 in 10.0 mi North 13.8 mph 18.4 mph N/A   Overcast
11:07 AM 28.4 °F 16.6 °F 19.4 °F 69% 30.24 in 10.0 mi North 16.1 mph 23.0 mph N/A   Overcast
11:27 AM 28.4 °F 18.0 °F 19.4 °F 69% 30.24 in 10.0 mi NNW 12.7 mph 20.7 mph N/A   Overcast
11:47 AM 28.4 °F 20.4 °F 19.4 °F 69% 30.25 in 10.0 mi NNW 8.1 mph 23.0 mph N/A   Overcast
12:07 PM 28.4 °F 17.5 °F 17.6 °F 64% 30.25 in 10.0 mi North 13.8 mph 25.3 mph N/A   Overcast
12:27 PM 28.4 °F 16.6 °F 19.4 °F 69% 30.25 in 10.0 mi North 16.1 mph - N/A   Overcast
12:47 PM 28.4 °F 17.0 °F 19.4 °F 69% 30.26 in 10.0 mi NW 15.0 mph 19.6 mph N/A   Overcast
1:07 PM 28.4 °F 17.0 °F 17.6 °F 64% 30.27 in 10.0 mi North 15.0 mph 21.9 mph N/A   Overcast
1:27 PM 28.4 °F 19.7 °F 19.4 °F 69% 30.28 in 10.0 mi North 9.2 mph - N/A   Overcast
1:47 PM 28.4 °F 19.7 °F 19.4 °F 69% 30.28 in 10.0 mi North 9.2 mph - N/A   Overcast
2:07 PM 28.4 °F 19.1 °F 17.6 °F 64% 30.29 in 10.0 mi NNW 10.4 mph 20.7 mph N/A   Overcast
2:27 PM 28.4 °F 16.6 °F 17.6 °F 64% 30.31 in 10.0 mi NNW 16.1 mph 23.0 mph N/A   Overcast
2:47 PM 28.4 °F 20.4 °F 17.6 °F 64% 30.31 in 10.0 mi NNW 8.1 mph - N/A   Overcast
3:07 PM 28.4 °F 19.1 °F 17.6 °F 64% 30.32 in 10.0 mi NNW 10.4 mph 16.1 mph N/A   Overcast
3:27 PM 28.4 °F 17.5 °F 17.6 °F 64% 30.33 in 10.0 mi North 13.8 mph 19.6 mph N/A   Overcast
3:47 PM 28.4 °F 19.7 °F 17.6 °F 64% 30.34 in 10.0 mi North 9.2 mph - N/A   Overcast
4:07 PM 26.6 °F 16.2 °F 15.8 °F 64% 30.34 in 10.0 mi North 11.5 mph 20.7 mph N/A   Overcast
4:27 PM 26.6 °F 16.8 °F 15.8 °F 64% 30.35 in 10.0 mi NNW 10.4 mph 17.3 mph N/A   Overcast
4:47 PM 26.6 °F 16.2 °F 14.0 °F 59% 30.36 in 10.0 mi North 11.5 mph 23.0 mph N/A   Overcast
5:07 PM 26.6 °F 17.5 °F 14.0 °F 59% 30.37 in 10.0 mi North 9.2 mph 21.9 mph N/A   Overcast
5:26 PM 26.6 °F 16.2 °F 14.0 °F 59% 30.38 in 10.0 mi NNW 11.5 mph - N/A   Overcast
5:47 PM 26.6 °F 16.2 °F 14.0 °F 59% 30.38 in 10.0 mi North 11.5 mph 17.3 mph N/A   Overcast
6:07 PM 24.8 °F 12.9 °F 12.2 °F 59% 30.40 in 10.0 mi North 13.8 mph 19.6 mph N/A   Overcast
6:27 PM 24.8 °F 13.4 °F 12.2 °F 59% 30.40 in 10.0 mi North 12.7 mph 20.7 mph N/A   Overcast
6:47 PM 24.8 °F 14.6 °F 12.2 °F 59% 30.40 in 10.0 mi North 10.4 mph - N/A   Overcast
7:07 PM 24.8 °F 14.6 °F 14.0 °F 64% 30.41 in 10.0 mi NNW 10.4 mph 20.7 mph N/A   Overcast
7:27 PM 23.0 °F 13.1 °F 14.0 °F 68% 30.42 in 10.0 mi NNW 9.2 mph 19.6 mph N/A   Overcast
7:47 PM 23.0 °F 11.7 °F 14.0 °F 68% 30.43 in 10.0 mi NNW 11.5 mph 18.4 mph N/A   Scattered Clouds
8:07 PM 23.0 °F 12.4 °F 14.0 °F 68% 30.43 in 10.0 mi NNW 10.4 mph - N/A   Mostly Cloudy
8:27 PM 23.0 °F 13.1 °F 14.0 °F 68% 30.44 in 10.0 mi NNW 9.2 mph - N/A   Overcast
8:47 PM 23.0 °F 14.7 °F 12.2 °F 63% 30.45 in 10.0 mi North 6.9 mph 18.4 mph N/A   Overcast
9:07 PM 23.0 °F 12.4 °F 12.2 °F 63% 30.45 in 10.0 mi North 10.4 mph - N/A   Overcast
9:27 PM 23.0 °F 13.1 °F 12.2 °F 63% 30.46 in 10.0 mi North 9.2 mph - N/A   Overcast
9:47 PM 21.2 °F 10.9 °F 12.2 °F 68% 30.46 in 10.0 mi North 9.2 mph - N/A   Overcast
10:07 PM 21.2 °F 10.1 °F 12.2 °F 68% 30.46 in 10.0 mi NNW 10.4 mph 19.6 mph N/A   Overcast
10:27 PM 21.2 °F 10.9 °F 12.2 °F 68% 30.47 in 10.0 mi North 9.2 mph 17.3 mph N/A   Overcast
10:47 PM 21.2 °F 11.7 °F 12.2 °F 68% 30.48 in 10.0 mi North 8.1 mph - N/A   Overcast
11:07 PM 21.2 °F 12.6 °F 12.2 °F 68% 30.48 in 10.0 mi North 6.9 mph - N/A   Overcast
11:27 PM 21.2 °F 10.9 °F 12.2 °F 68% 30.49 in 10.0 mi North 9.2 mph - N/A   Overcast
11:46 PM 21.2 °F 14.9 °F 12.2 °F 68% 30.48 in 10.0 mi NNW 4.6 mph - N/A   Scattered Clouds